Location: Enborne
(51.3833°N, 1.3667°W)
Time: 14:12:14
(UTC+00:00)

Cosmos 1844 Rocket - Pass Details

Date: 25 January 2021
Orbit: 826 x 843 km, 71.0° (Epoch: 05 March)

Event Time Altitude Azimuth Distance (km) Brightness Sun altitude
Rises 18:25:38 0° 217° (SW) 3,390 6.6 -15.7°
Reaches altitude 10° 18:28:06 10° 220° (SW) 2,458 5.9 -16.1°
Maximum altitude 18:33:43 67° 304° (WNW) 911 3.0 -17.0°
Enters shadow 18:39:13 11° 26° (NNE) 2,408 4.7 -17.8°
